Find Starlink 5559

NORAD ID: 56335 Int'l Des: 2023-058 Owner: SPXS Country: US Constellation: starlink operational
LEOCIRCULARRETROGRADESSO

現在のビュー

3D地球を読み込み中...

About Starlink 5559

Starlink 5559 (NORAD 56335) is a starlink constellation satellite (v1.5) launched Apr 27, 2023 by SPXS of US. It operates in LEO, CIRCULAR, RETROGRADE, SSO orbit with a mass of 300.00 kg.

Starlink 5559について

説明を読み込み中...

次回通過

Passes for default location (London). Set your location on the main map for personalized predictions.

高度履歴

Loading altitude history...

軌道要素

1 56335U 23058U 26170.92671356 -.00001744 00000-0 -11690-3 0 9993
2 56335 97.3366 170.9657 0002022 100.1796 259.9659 15.05667082173582
Epoch: Jun 19, 2026 • Age: 26 hours

現在のステータス

高度 551.4 km
速度 7.59 km/s
衛星直下点 18.75°N, 78.16°E
打ち上げ日 Apr 27, 2023
運用期間 3.1 years
タイプ internet

技術仕様

分類 Payload
質量 300.00 kg
乾燥質量 260.00 kg
総質量 300.00 kg
長さ 0.20 m
直径 2.80 m
スパン 9.00 m
形状 Box + pan
製造者 SPXS
バスタイプ Starlink
フェーズステータス In Orbit
所有者/国 SPXS/US

Most Searched